Hovedside
METAR-TAF:

METAR-TAF

Lufthavner :

Såtenäs, Sverige

breddegrad: 58-26N, lengdegrad: 012-42E, høyde over havet: 54 m

Gjeldene værobservasjon

Denne rapporten ble laget for 14 minutter siden, klokken 21:50 UTC
Vind 6 kt fra Sør-sørøst
Temperatur 16°C
Luftfuktighet 94%
Trykk 1006 hPa
Sikt 10 km eller mer

METAR: ESIB 182150Z AUTO 16006KT 9999 NCD 16/15 Q1006

Tid: 00:04 (22:04 UTC)


TAF: fraværende

Værobservasjoner og værvarsel for over 4000 flyplasser (METAR- og TAF-rapporter).

Tilgjengelige stasjoner er representert av de røde og gule prikkene på kartet.

Hold musepekeren over prikken for å se navnet på stasjonen.

Klikk så for å se værobservasjoner og -varsler.

For å forandre kartet kan du klikke på den grønne knappen med svart kryss for å zoome inn, på den grønne knappen med strek for å zoome ut, eller på de grønne pilene for å se tilstøtende kart.


METAR-TAF: